LANDSAT 8 (39084 NORAD) Tracking and Keplerian Element Data

This shows tracking and keplerian element data for the satellite.

Feedback or suggestion? Click here.




ElementValue
Catalog39084
NameLANDSAT 8
Epoch Orbit33424
Epoch Day146.75897703
Epoch Year2019
RAAN217.0171
Inclination98.2244
Eccentricity0.0001265
Argument of Perigee71.5515
Mean Anonmoly288.5813
Mean Motion14.57102563
Decay Rate2.9E-07
L11 39084U 13008A 19146.75897703 .00000029 00000-0 16436-4 0 9998
L22 39084 98.2244 217.0171 0001265 71.5515 288.5813 14.57102563334247

Live tracking and technical data element details for LANDSAT 8 (NORAD 39084). LANDSAT 8 can be tracked NOW for your location showing map with azimuth and elevation plus other details from your city location.

Track the satellite on the map from your city or location and see movement details for azimuth, elevation, latitude, longitude, range, height, and movement on the map or in text.







IsCatalogInMostPopularTable: catalog: 39084, numindb: 210
Update: records affected: 1



GetName: 39084 LANDSAT 8

Hit Count: updated at: Mon, 27 May 2019 03:55:17 GMT